DW4393 Weather Reports


Display with metric or nautical units.
time (UTC)temp
F
wind
direction
speed
MPH
gust
MPH
rain 1hr
in
rain 24hr
in
rain mn
in
humidity
%
barometer
mb
20260505021303 58 194 0.0 0.0 0.00 0.00 0.00 79 1015.2
20260505020803 58 194 0.0 0.0 0.00 0.00 0.00 78 1015.2
20260505020303 58 194 0.0 0.0 0.00 0.00 0.00 78 1015.1
20260505014303 60 194 0.0 0.0 0.00 0.00 0.00 76 1015.0
20260505013803 60 194 0.0 0.0 0.00 0.00 0.00 75 1015.0
20260505013303 60 194 0.0 0.0 0.00 0.00 0.00 75 1014.9
20260505011802 61 194 0.0 0.0 0.00 0.00 0.00 70 1014.8
20260505010803 62 194 0.0 0.0 0.00 0.00 0.00 69 1014.8
20260505010304 63 194 0.0 0.0 0.00 0.00 0.00 67 1014.6
20260505004803 64 194 0.0 0.0 0.00 0.00 0.00 64 1014.5
20260505004303 64 194 0.0 0.0 0.00 0.00 0.00 63 1014.5
20260505003803 65 194 0.0 0.0 0.00 0.00 0.00 62 1014.4
20260505003303 65 194 0.0 0.0 0.00 0.00 0.00 61 1014.3
20260505001802 67 194 0.0 0.0 0.00 0.00 0.00 60 1014.4
20260505001303 68 194 0.0 0.0 0.00 0.00 0.00 54 1014.4
20260505000804 68 194 0.0 0.0 0.00 0.00 0.00 56 1014.4
20260505000303 69 194 0.0 0.0 0.00 0.00 0.00 54 1014.2
20260504234803 70 194 0.0 0.0 0.00 0.00 0.00 52 1014.3
20260504234303 70 194 0.0 1.0 0.00 0.00 0.00 50 1014.3
20260504233803 71 194 0.0 1.0 0.00 0.00 0.00 49 1014.4
20260504233303 71 194 0.0 1.0 0.00 0.00 0.00 48 1014.3
20260504231303 74 194 0.0 2.0 0.00 0.00 0.00 43 1014.4
20260504230803 73 194 0.0 2.0 0.00 0.00 0.00 43 1014.4
20260504230303 73 186 1.0 1.0 0.00 0.00 0.00 42 1014.4
20260504224802 74 184 1.0 2.0 0.00 0.00 0.00 41 1014.3
20260504224303 73 184 0.0 1.0 0.00 0.00 0.00 41 1014.5
20260504223804 73 184 1.0 2.0 0.00 0.00 0.00 42 1014.4
20260504223303 74 184 0.0 2.0 0.00 0.00 0.00 41 1014.4
20260504221803 75 208 1.0 3.0 0.00 0.00 0.00 41 1014.2
20260504221303 75 198 1.0 2.0 0.00 0.00 0.00 42 1014.2
20260504220303 74 186 0.0 1.0 0.00 0.00 0.00 42 1014.3
20260504214803 74 186 0.0 2.0 0.00 0.00 0.00 41 1014.1
20260504214303 74 186 0.0 1.0 0.00 0.00 0.00 45 1014.0
20260504213803 75 186 0.0 1.0 0.00 0.00 0.00 41 1014.0
20260504213303 76 180 0.0 3.0 0.00 0.00 0.00 40 1014.0
20260504211804 77 242 2.0 3.0 0.00 0.00 0.00 40 1014.2
20260504211303 76 204 1.0 2.0 0.00 0.00 0.00 39 1014.2
20260504210803 76 246 2.0 3.0 0.00 0.00 0.00 38 1014.2
20260504210303 76 186 1.0 3.0 0.00 0.00 0.00 41 1014.2
20260504204803 76 211 1.0 2.0 0.00 0.00 0.00 40 1014.3
20260504203803 76 256 1.0 3.0 0.00 0.00 0.00 38 1014.3
20260504203303 77 236 1.0 3.0 0.00 0.00 0.00 37 1014.3
20260504201804 78 237 1.0 2.0 0.00 0.00 0.00 39 1014.4
20260504201303 78 137 1.0 3.0 0.00 0.00 0.00 38 1014.4
20260504200803 77 239 1.0 2.0 0.00 0.00 0.00 40 1014.5
20260504200303 77 244 0.0 3.0 0.00 0.00 0.00 36 1014.7
20260504194803 78 169 1.0 3.0 0.00 0.00 0.00 36 1014.8
20260504193803 78 244 2.0 3.0 0.00 0.00 0.00 37 1014.9
20260504193303 78 268 1.0 3.0 0.00 0.00 0.00 34 1014.9
20260504191303 78 211 2.0 3.0 0.00 0.00 0.00 39 1015.3
20260504190803 77 221 0.0 2.0 0.00 0.00 0.00 40 1015.4
20260504184803 76 195 0.0 0.0 0.00 0.00 0.00 40 1015.7
20260504184303 76 195 0.0 1.0 0.00 0.00 0.00 38 1015.8
20260504183803 76 190 1.0 3.0 0.00 0.00 0.00 38 1015.9
20260504183303 76 197 1.0 3.0 0.00 0.00 0.00 40 1015.9
20260504181804 76 233 1.0 2.0 0.00 0.00 0.00 38 1016.1
20260504181304 75 309 1.0 2.0 0.00 0.00 0.00 45 1016.1
20260504180803 74 238 0.0 2.0 0.00 0.00 0.00 43 1016.2
20260504180303 73 247 0.0 5.0 0.00 0.00 0.00 41 1016.3
20260504174803 74 239 0.0 1.0 0.00 0.00 0.00 45 1016.6
20260504174303 74 215 2.0 3.0 0.00 0.00 0.00 41 1016.6
20260504173804 74 88 0.0 2.0 0.00 0.00 0.00 43 1016.6
20260504173304 73 198 0.0 2.0 0.00 0.00 0.00 45 1016.7
20260504171804 73 313 1.0 2.0 0.00 0.00 0.00 41 1017.0
20260504171303 73 349 1.0 2.0 0.00 0.00 0.00 40 1017.0
20260504170803 74 40 0.0 3.0 0.00 0.00 0.00 46 1017.1
20260504170304 74 43 1.0 3.0 0.00 0.00 0.00 42 1017.2
20260504160304 69 190 1.0 3.0 0.00 0.00 0.00 46 1017.9
20260504150803 66 194 0.0 1.0 0.00 0.00 0.00 55 1018.3
20260504150303 66 171 0.0 2.0 0.00 0.00 0.00 55 1018.3
20260504141304 62 176 0.0 0.0 0.00 0.00 0.00 63 1018.5
20260504140803 62 176 0.0 3.0 0.00 0.00 0.00 61 1018.5
20260504140304 61 179 1.0 2.0 0.00 0.00 0.00 61 1018.5
20260504130803 53 202 0.0 0.0 0.00 0.00 0.00 91 1018.6
20260504110304 41 202 0.0 0.0 0.00 0.00 0.00 93 1018.2
20260504081303 43 202 0.0 0.0 0.00 0.00 0.00 92 1018.1
20260504080804 43 202 0.0 0.0 0.00 0.00 0.00 92 1018.0
20260504080303 43 202 0.0 0.0 0.00 0.00 0.00 92 1018.0
20260504070304 44 202 0.0 0.0 0.00 0.00 0.00 91 1018.4
20260504044803 46 202 0.0 0.0 0.00 0.00 0.00 88 1018.6
20260504044304 46 202 0.0 0.0 0.00 0.00 0.00 88 1018.6
20260504043304 47 202 0.0 0.0 0.00 0.00 0.00 88 1018.5
20260504041804 47 202 0.0 0.0 0.00 0.00 0.00 87 1018.6
20260504041305 48 202 0.0 0.0 0.00 0.00 0.00 87 1018.5
20260504040822 48 202 0.0 0.0 0.00 0.00 0.00 86 1018.5
20260504040304 48 202 0.0 0.0 0.00 0.00 0.00 86 1018.6
20260504034804 49 202 0.0 0.0 0.00 0.00 0.00 85 1018.5
20260504034304 49 202 0.0 0.0 0.00 0.00 0.00 85 1018.5
20260504033804 49 202 0.0 0.0 0.00 0.00 0.00 84 1018.4
20260504031304 50 202 0.0 0.0 0.00 0.00 0.00 82 1018.6
20260504030804 50 202 0.0 0.0 0.00 0.00 0.00 82 1018.5
20260504030305 50 202 0.0 0.0 0.00 0.00 0.00 82 1018.3
20260504024804 51 202 0.0 0.0 0.00 0.00 0.00 80 1018.4
20260504024304 51 202 0.0 0.0 0.00 0.00 0.00 81 1018.3
20260504023804 51 202 0.0 0.0 0.00 0.00 0.00 80 1018.2
20260504023304 52 202 0.0 1.0 0.00 0.00 0.00 80 1018.1